TimePST,TemperatureF,Dew PointF,Humidity,Sea Level PressureIn,VisibilityMPH,Wind Direction,Wind SpeedMPH,Gust SpeedMPH,PrecipitationIn,Events,Conditions,WindDirDegrees,DateUTC
12:54 AM,44.1,30.9,60,30.21,10.0,Calm,Calm,-,N/A,,Clear,0,2013-03-02 08:54:00
1:54 AM,44.1,32.0,63,30.20,10.0,Calm,Calm,-,N/A,,Clear,0,2013-03-02 09:54:00
2:54 AM,39.9,30.0,68,30.18,10.0,Calm,Calm,-,N/A,,Clear,0,2013-03-02 10:54:00
3:54 AM,42.1,30.0,62,30.18,10.0,Calm,Calm,-,N/A,,Clear,0,2013-03-02 11:54:00
4:54 AM,39.0,30.0,70,30.18,10.0,Calm,Calm,-,N/A,,Clear,0,2013-03-02 12:54:00
5:54 AM,39.0,30.0,70,30.19,10.0,Calm,Calm,-,N/A,,Clear,0,2013-03-02 13:54:00
6:54 AM,43.0,32.0,65,30.19,10.0,Calm,Calm,-,N/A,,Clear,0,2013-03-02 14:54:00
7:54 AM,55.9,33.1,42,30.19,10.0,Calm,Calm,-,N/A,,Clear,0,2013-03-02 15:54:00
8:54 AM,70.0,33.1,26,30.19,10.0,Calm,Calm,-,N/A,,Clear,0,2013-03-02 16:54:00
9:54 AM,82.0,26.1,13,30.18,10.0,ENE,3.5,-,N/A,,Clear,60,2013-03-02 17:54:00
10:54 AM,82.9,30.0,15,30.17,10.0,SSW,6.9,-,N/A,,Clear,200,2013-03-02 18:54:00
11:54 AM,82.9,25.0,12,30.16,10.0,SSW,8.1,-,N/A,,Clear,200,2013-03-02 19:54:00
12:54 PM,84.0,23.0,11,30.13,10.0,SW,8.1,-,N/A,,Clear,230,2013-03-02 20:54:00
1:54 PM,82.9,21.9,11,30.10,10.0,SW,9.2,-,N/A,,Clear,220,2013-03-02 21:54:00
2:54 PM,80.1,21.0,11,30.09,10.0,SSW,9.2,-,N/A,,Clear,210,2013-03-02 22:54:00
3:54 PM,75.9,25.0,15,30.08,10.0,SSW,5.8,-,N/A,,Clear,200,2013-03-02 23:54:00
4:54 PM,75.0,25.0,16,30.08,10.0,SW,5.8,-,N/A,,Clear,220,2013-03-03 00:54:00
5:54 PM,66.0,33.1,29,30.09,10.0,SSW,5.8,-,N/A,,Clear,200,2013-03-03 01:54:00
6:54 PM,60.1,37.0,42,30.11,10.0,Calm,Calm,-,N/A,,Clear,0,2013-03-03 02:54:00
7:54 PM,53.1,35.1,50,30.12,10.0,NE,4.6,-,N/A,,Clear,40,2013-03-03 03:54:00
8:54 PM,52.0,33.1,49,30.13,10.0,NE,4.6,-,N/A,,Clear,50,2013-03-03 04:54:00
10:54 PM,46.0,33.1,61,30.12,10.0,Calm,Calm,-,N/A,,Clear,0,2013-03-03 06:54:00
11:54 PM,46.0,34.0,63,30.12,10.0,Calm,Calm,-,N/A,,Clear,0,2013-03-03 07:54:00